TimeCAT,TemperatureF,Dew PointF,Humidity,Sea Level PressureIn,VisibilityMPH,Wind Direction,Wind SpeedMPH,Gust SpeedMPH,PrecipitationIn,Events,Conditions,WindDirDegrees,DateUTC
12:00 AM,78.8,53.6,42,29.98,-9999.0,ESE,17.3,-,N/A,,Clear,110,2012-11-07 22:00:00
1:00 AM,77.0,55.4,47,29.95,-9999.0,East,15.0,-,N/A,,Clear,100,2012-11-07 23:00:00
2:00 AM,75,56,42,,6,East,10.4,,,,Mostly Cloudy,100,2012-11-08 00:00:00
2:00 AM,75.2,57.2,53,29.95,-9999.0,East,10.4,-,N/A,,Clear,100,2012-11-08 00:00:00
3:00 AM,73.4,57.2,57,29.98,-9999.0,East,10.4,-,N/A,,Clear,80,2012-11-08 01:00:00
4:00 AM,73.4,57.2,57,29.98,-9999.0,ENE,10.4,-,N/A,,Clear,70,2012-11-08 02:00:00
5:00 AM,71.6,57.2,60,29.98,-9999.0,East,9.2,-,N/A,,Clear,100,2012-11-08 03:00:00
6:00 AM,71.6,59.0,64,30.01,-9999.0,East,9.2,-,N/A,,Clear,90,2012-11-08 04:00:00
7:00 AM,73.4,59.0,61,30.01,-9999.0,East,12.7,-,N/A,,Clear,80,2012-11-08 05:00:00
8:00 AM,76,59,46,,6,ENE,17.3,,,,Scattered Clouds,60,2012-11-08 06:00:00
8:00 AM,77.0,59.0,54,30.01,6.2,ENE,17.3,-,N/A,,Scattered Clouds,60,2012-11-08 06:00:00
9:00 AM,78.8,59.0,51,30.01,6.2,NE,15.0,-,N/A,,Scattered Clouds,50,2012-11-08 07:00:00
10:00 AM,80.6,59.0,48,30.01,6.2,ENE,15.0,-,N/A,,Scattered Clouds,70,2012-11-08 08:00:00
11:00 AM,80.6,59.0,48,29.98,6.2,NE,12.7,-,N/A,,Mostly Cloudy,40,2012-11-08 09:00:00
12:00 PM,84.2,59.0,42,29.98,6.2,NE,12.7,-,N/A,,Mostly Cloudy,50,2012-11-08 10:00:00
1:00 PM,87.8,55.4,33,29.92,6.2,NNE,13.8,-,N/A,,Mostly Cloudy,30,2012-11-08 11:00:00
2:00 PM,90,56,22,,6,NE,12.7,,,,Scattered Clouds,50,2012-11-08 12:00:00
2:00 PM,89.6,55.4,31,29.89,6.2,NE,12.7,-,N/A,,Partly Cloudy,50,2012-11-08 12:00:00
3:00 PM,91.4,55.4,29,29.86,6.2,NE,10.4,-,N/A,,Scattered Clouds,40,2012-11-08 13:00:00
4:00 PM,89.6,51.8,27,29.83,6.2,NW,6.9,-,N/A,Thunderstorm,Thunderstorm,310,2012-11-08 14:00:00
5:00 PM,89.6,53.6,29,29.83,6.2,NE,9.2,-,N/A,Thunderstorm,Thunderstorm,50,2012-11-08 15:00:00
6:00 PM,84.2,59.0,42,29.83,6.2,NE,12.7,-,N/A,Thunderstorm,Thunderstorm,50,2012-11-08 16:00:00
7:00 PM,71.6,55.4,57,29.92,6.2,ESE,23.0,-,N/A,Thunderstorm,Thunderstorm,110,2012-11-08 17:00:00
8:00 PM,69,58,59,,6,East,19.6,,,Thunderstorm,Thunderstorm,90,2012-11-08 18:00:00
8:00 PM,69.8,57.2,64,29.95,6.2,East,19.6,-,N/A,Thunderstorm,Thunderstorm,90,2012-11-08 18:00:00
9:00 PM,68.0,57.2,68,30.01,6.2,ENE,15.0,-,N/A,,Partly Cloudy,60,2012-11-08 19:00:00
10:00 PM,66.2,59.0,78,30.04,6.2,ENE,18.4,-,N/A,,Partly Cloudy,70,2012-11-08 20:00:00
11:00 PM,66.2,59.0,78,30.04,6.2,ENE,20.7,-,N/A,,Partly Cloudy,60,2012-11-08 21:00:00